This demonstration page uses our WeatherBlox Daily Observations layout. Learn more.

38.89511, -77.03637

Hourly Observations for November 21, 2017

Temp ( °F °C ) Dew Point ( °F °C ) Humidity (%) Winds ( mph kmh ) Pressure ( in mb ) Visibility ( mi km ) Precip ( " mm )
12:56 am 00:56 Clear 41 5 23 -5 49 49 SSW 3 6 30.25 1024 10 16.0934 0 0
1:56 am 01:56 Clear 41 5 23 -5 49 49 S 6 9 30.24 1024 10 16.0934 0 0
2:56 am 02:56 Clear 41 5 24 -4.4 51 51 S 5 7 30.23 1024 10 16.0934 0 0
3:56 am 03:56 Clear 40 4.4 25 -3.9 55 55 SSE 7 11 30.21 1023 10 16.0934 0 0
4:56 am 04:56 Clear 36 2.2 25 -3.9 64 64 SSE 6 9 30.2 1023 10 16.0934 0 0
5:56 am 05:56 Clear 37 2.8 25 -3.9 62 62 S 3 6 30.21 1023 10 16.0934 0 0
6:56 am 06:56 Clear 36 2.2 25 -3.9 64 64 SSE 5 7 30.22 1023 10 16.0934 0 0
7:56 am 07:56 Sunny 39 3.9 27 -2.8 62 62 SSE 6 9 30.22 1024 10 16.0934 0 0
8:56 am 08:56 Sunny 44 6.7 28 -2.2 53 53 S 8 13 30.23 1024 10 16.0934 0 0
9:56 am 09:56 Sunny 48 8.9 28 -2.2 46 46 SSW 8 13 30.23 1024 10 16.0934 0 0
10:56 am 10:56 Sunny 54 12.2 29 -1.7 38 38 S 12 19 30.21 1023 10 16.0934 0 0
11:56 am 11:56 Sunny 55 12.8 30 -1.1 38 38 SSW 8 13 30.18 1022 10 16.0934 0 0
12:56 pm 12:56 Sunny 57 13.9 31 -0.6 37 37 SSW 12 19 30.14 1021 10 16.0934 0 0
1:56 pm 13:56 Sunny 58 14.4 33 0.6 39 39 SSW 12 19 30.13 1020 10 16.0934 0 0
2:56 pm 14:56 Sunny 59 15 33 0.6 38 38 SW 7 11 30.11 1020 10 16.0934 0 0
3:56 pm 15:56 Sunny 59 15 36 2.2 42 42 SSW 8 13 30.11 1020 10 16.0934 0 0
4:56 pm 16:56 Clear 56 13.3 38 3.3 51 51 SSE 6 9 30.1 1019 10 16.0934 0 0
5:56 pm 17:56 Clear 56 13.3 41 5 57 57 S 9 15 30.11 1020 10 16.0934 0 0
6:56 pm 18:56 Clear 56 13.3 42 5.6 60 60 S 12 19 30.12 1020 10 16.0934 0 0
7:56 pm 19:56 Clear 55 12.8 41 5 59 59 S 10 17 30.13 1020 10 16.0934 0 0
8:56 pm 20:56 Clear 55 12.8 42 5.6 62 62 S 9 15 30.14 1021 10 16.0934 0 0
9:56 pm 21:56 Clear 53 11.7 42 5.6 66 66 S 6 9 30.13 1020 10 16.0934 0 0
10:56 pm 22:56 Clear 53 11.7 43 6.1 69 69 VRB 5 7 30.1 1019 10 16.0934 0 0
11:56 pm 23:56 Clear 53 11.7 44 6.7 72 72 S 9 15 30.08 1019 10 16.0934 0 0

Powered by AerisWeather